Regional Weather Roundup
Issued by NWS Little Rock, AR

Home | Current Version | Previous Version | Text Only | Print | Product List | Glossary On
Versions: 1 2 3 4 5 6 7 8 9 10 11 12 13 14 15 16 17 18 19 20 21 22 23 24 25 26 27 28 29 30 31 32 33 34 35 36 37 38 39 40 41 42 43 44 45 46 47 48 49 50
000
ASUS44 KLZK 190905
RWRLZK

WEATHER ROUNDUP FOR ARKANSAS
NATIONAL WEATHER SERVICE LITTLE ROCK AR
400 AM CDT THU APR 19 2018

NOTE: "FAIR" INDICATES FEW OR NO CLOUDS BELOW 12,000 FEET WITH NO
SIGNIFICANT WEATHER AND/OR OBSTRUCTIONS TO VISIBILITY.

ARZ001-003-010-029-191000-
NORTHWEST ARKANSAS

CITY           SKY/WX    TMP DP  RH WIND       PRES   REMARKS
FAYETTEVILLE   CLEAR     40  29  64 N9        30.26R
FORT SMITH     CLEAR     48  31  51 N8        30.26R
HARRISON       CLEAR     39  26  59 N13G21    30.23R
BENTONVILLE    CLEAR     39  25  57 N12       30.28R
ROGERS         CLEAR     37  25  61 N5        30.26R
SILOAM SPGS    CLEAR     38  26  62 N10       30.28R
HIGHFILL       CLEAR     38  26  62 N10       30.26R
$$

ARZ004-005-016-191000-
NORTH CENTRAL ARKANSAS

CITY           SKY/WX    TMP DP  RH WIND       PRES   REMARKS
BATESVILLE     CLEAR     44  29  55 NW6       30.20R
FLIPPIN        CLEAR     41  25  53 NW7G17    30.24R
MTN HOME       CLEAR     40  24  53 N6G18     30.21R
$$

ARZ040-041-191000-
WEST CENTRAL ARKANSAS

CITY           SKY/WX    TMP DP  RH WIND       PRES   REMARKS
MENA           CLEAR     50  32  50 N3        30.22R
MOUNT IDA      CLEAR     47  32  56 NW3       30.19R
$$

ARZ009-017-025-026-028-191000-
NORTHEAST ARKANSAS

CITY           SKY/WX    TMP DP  RH WIND       PRES   REMARKS
CORNING        FAIR      41  32  70 NW6       30.17R
JONESBORO      FAIR      44  31  60 NW9       30.18R
NEWPORT        FAIR      44  30  57 NW10      30.20R
WALNUT RIDGE   FAIR      42  30  62 NW7       30.18R
BLYTHEVILLE    FAIR      42  30  62 N8        30.16R
$$

ARZ022-023-033-042-044-191000-
CENTRAL ARKANSAS

CITY           SKY/WX    TMP DP  RH WIND       PRES   REMARKS
LITTLE ROCK    CLEAR     47  32  56 N10       30.21R
N LITTLE ROCK    N/A     47  32  56 N6        30.17R
JACKSONVILLE   CLEAR     49  29  46 N6        30.20R
CONWAY           N/A     48  32  53 N9        30.20R
SEARCY         FAIR      46  31  55 NW5       30.21R
HOT SPRINGS    CLEAR     52  30  43 N3        30.21R
RUSSELLVILLE   CLEAR     49  29  46 NW8G17    30.22R
CLINTON        FAIR      46  30  53 VRB7G14   30.21R
$$

ARZ036-191000-
EAST ARKANSAS

CITY           SKY/WX    TMP DP  RH WIND       PRES   REMARKS
WEST MEMPHIS   FAIR      46  32  58 N10       30.16R
$$

ARZ050-053-066-070-073-191000-
SOUTHWEST ARKANSAS

CITY           SKY/WX    TMP DP  RH WIND       PRES   REMARKS
ARKADELPHIA    FAIR      52  34  50 N5        30.21R
CAMDEN         FAIR      54  34  47 N7G13     30.18R
TEXARKANA      CLEAR     52  33  48 N6        30.21R
EL DORADO      FAIR      53  40  61 NW8       30.17R
DE QUEEN       CLEAR     45  37  73 CALM      30.21R
$$

ARZ056-057-069-191000-
SOUTHEAST ARKANSAS

CITY           SKY/WX    TMP DP  RH WIND       PRES   REMARKS
PINE BLUFF     FAIR      51  32  48 N13       30.19R
STUTTGART      FAIR      49  33  54 N15G21    30.19R
MONTICELLO     FAIR      54  32  43 N13G24    30.17R

$$





USA.gov is the U.S. government's official web portal to all federal, state and local government web resources and services.